ARG1898 SABE-SAWC

Flight info

Callsign ARG1898
Flight time N/A
Altitude 38000
Route PTA8 GBE UT694 IREMO/N0465F400 UP664 CRV UW48 BOKUK BOKUK2Q
Aircraft E190/M-SDE3GILORVW/S

Departure

Time 2026-05-07 15:35
Airport Aeroparque Jorge Newbery (SABE)

Arrival

Time N/A
Airport El Calafate - Commander Armando Tola International Airport (SAWC)
Time Latitude Longitude Altitude Speed Heading
2026-05-07 15:35 -34.53214 -58.30424 8462 ft 235 kts 97°
2026-05-07 15:35 -34.53368 -58.28452 9181 ft 237 kts 97°
2026-05-07 15:35 -34.53511 -58.26482 9881 ft 238 kts 96°
2026-05-07 15:35 -34.54003 -58.24593 10455 ft 239 kts 131°
2026-05-07 15:36 -34.55248 -58.23262 10956 ft 244 kts 147°
2026-05-07 15:36 -34.56675 -58.22060 11481 ft 252 kts 148°
2026-05-07 15:36 -34.58141 -58.20869 12065 ft 257 kts 149°
2026-05-07 15:36 -34.59644 -58.19672 12646 ft 261 kts 149°
2026-05-07 15:37 -34.61192 -58.18449 13176 ft 267 kts 150°
2026-05-07 15:37 -34.62770 -58.17211 13691 ft 273 kts 149°
2026-05-07 15:37 -34.64379 -58.15950 14199 ft 279 kts 150°
2026-05-07 15:37 -34.66029 -58.14658 14729 ft 284 kts 149°
2026-05-07 15:38 -34.67697 -58.13351 15297 ft 287 kts 148°
2026-05-07 15:38 -34.69456 -58.11974 15444 ft 311 kts 149°
2026-05-07 15:38 -34.71343 -58.10495 15502 ft 336 kts 148°
2026-05-07 15:38 -34.73381 -58.08897 15564 ft 360 kts 148°
2026-05-07 15:39 -34.75576 -58.07172 15680 ft 382 kts 148°
2026-05-07 15:39 -34.77834 -58.05400 16108 ft 391 kts 148°
2026-05-07 15:39 -34.80149 -58.03581 16700 ft 396 kts 148°
2026-05-07 15:39 -34.82456 -58.01767 17324 ft 398 kts 147°
2026-05-07 15:40 -34.84805 -57.99918 17867 ft 403 kts 147°
2026-05-07 15:40 -34.87158 -57.98065 18409 ft 407 kts 147°
2026-05-07 15:40 -34.89552 -57.96180 18898 ft 413 kts 147°
2026-05-07 15:40 -34.91955 -57.94285 19479 ft 416 kts 147°
2026-05-07 15:41 -34.94422 -57.92417 20045 ft 418 kts 156°
2026-05-07 15:41 -34.97214 -57.91491 20486 ft 415 kts 181°
2026-05-07 15:41 -35.00032 -57.91880 20943 ft 406 kts 205°
2026-05-07 15:41 -35.02498 -57.93377 21440 ft 398 kts 218°
2026-05-07 15:42 -35.04892 -57.95112 21919 ft 402 kts 218°
2026-05-07 15:42 -35.07325 -57.96877 22395 ft 406 kts 218°
2026-05-07 15:42 -35.09740 -57.98627 22887 ft 409 kts 218°
2026-05-07 15:42 -35.12212 -58.00420 23344 ft 413 kts 219°
2026-05-07 15:43 -35.14685 -58.02216 23767 ft 417 kts 219°
2026-05-07 15:43 -35.17223 -58.04059 24176 ft 422 kts 219°
2026-05-07 15:43 -35.19751 -58.05897 24592 ft 426 kts 219°
2026-05-07 15:43 -35.22287 -58.07743 25058 ft 429 kts 219°
2026-05-07 15:44 -35.24876 -58.09628 25426 ft 434 kts 219°
2026-05-07 15:44 -35.27474 -58.11521 25800 ft 440 kts 219°
2026-05-07 15:44 -35.30134 -58.13460 26166 ft 444 kts 220°
2026-05-07 15:44 -35.32779 -58.15392 26554 ft 448 kts 220°
2026-05-07 15:45 -35.35482 -58.17363 26980 ft 451 kts 220°
2026-05-07 15:45 -35.38202 -58.19352 27429 ft 453 kts 220°
2026-05-07 15:45 -35.40889 -58.21319 27790 ft 457 kts 220°
2026-05-07 15:45 -35.43656 -58.23343 28157 ft 461 kts 221°
2026-05-07 15:46 -35.49200 -58.27408 28820 ft 469 kts 220°
2026-05-07 15:46 -35.52023 -58.29479 29186 ft 473 kts 220°
2026-05-07 15:46 -35.54847 -58.31552 29585 ft 475 kts 221°
2026-05-07 15:47 -35.57686 -58.33640 29837 ft 480 kts 220°
2026-05-07 15:47 -35.60576 -58.35766 30104 ft 485 kts 220°
2026-05-07 15:47 -35.63477 -58.37903 30437 ft 488 kts 220°
2026-05-07 15:47 -35.66395 -58.40052 30731 ft 492 kts 220°
2026-05-07 15:48 -35.69373 -58.42248 30962 ft 498 kts 220°
2026-05-07 15:48 -35.72347 -58.44443 31193 ft 503 kts 221°
2026-05-07 15:48 -35.75332 -58.46652 31611 ft 502 kts 220°
2026-05-07 15:48 -35.78335 -58.48955 31944 ft 504 kts 222°
2026-05-07 15:49 -35.81293 -58.51227 32475 ft 501 kts 222°
2026-05-07 15:49 -35.84233 -58.53489 32861 ft 502 kts 221°
2026-05-07 15:49 -35.87200 -58.55770 33197 ft 503 kts 222°
2026-05-07 15:49 -35.90219 -58.58096 33566 ft 505 kts 221°
2026-05-07 15:50 -35.93172 -58.60370 33922 ft 506 kts 222°
2026-05-07 15:50 -35.96160 -58.62672 34372 ft 505 kts 223°
2026-05-07 15:50 -35.99085 -58.64930 34981 ft 500 kts 223°
2026-05-07 15:50 -36.02047 -58.67219 35434 ft 498 kts 223°
2026-05-07 15:51 -36.04965 -58.69474 36009 ft 494 kts 223°
2026-05-07 15:51 -36.07892 -58.71739 36547 ft 490 kts 223°
2026-05-07 15:51 -36.10635 -58.73866 36829 ft 491 kts 223°
2026-05-07 15:51 -36.13624 -58.76182 37253 ft 488 kts 223°
2026-05-07 15:52 -36.16498 -58.78411 37580 ft 481 kts 224°
2026-05-07 15:52 -36.22189 -58.82836 37610 ft 490 kts 223°
2026-05-07 15:53 -36.28076 -58.87419 37604 ft 503 kts 223°
2026-05-07 15:53 -36.34087 -58.92105 37601 ft 513 kts 223°
2026-05-07 15:54 -36.40138 -58.96832 37605 ft 517 kts 222°
2026-05-07 15:54 -36.46254 -59.01617 37599 ft 515 kts 223°
2026-05-07 15:55 -36.52307 -59.06364 37623 ft 511 kts 222°
2026-05-07 15:55 -36.58321 -59.11088 37649 ft 510 kts 222°
2026-05-07 15:56 -36.64400 -59.15874 37645 ft 516 kts 223°
2026-05-07 15:56 -36.70456 -59.20649 37583 ft 514 kts 222°
2026-05-07 15:57 -36.76472 -59.25402 37606 ft 509 kts 223°
2026-05-07 15:57 -36.82424 -59.30114 37630 ft 508 kts 222°
2026-05-07 15:58 -36.88415 -59.34863 37636 ft 504 kts 221°
2026-05-07 15:58 -36.94364 -59.39591 37637 ft 501 kts 221°
2026-05-07 15:59 -37.00176 -59.44218 37650 ft 501 kts 221°
2026-05-07 15:59 -37.06115 -59.48954 37649 ft 501 kts 221°
2026-05-07 16:00 -37.11995 -59.53651 37611 ft 495 kts 220°
2026-05-07 16:00 -37.17770 -59.58277 37627 ft 496 kts 220°
2026-05-07 16:01 -37.23472 -59.63085 37612 ft 492 kts 222°
2026-05-07 16:01 -37.29077 -59.67827 37595 ft 488 kts 222°
2026-05-07 16:02 -37.34747 -59.72633 37622 ft 492 kts 222°
2026-05-07 16:02 -37.40416 -59.77446 37594 ft 490 kts 221°
2026-05-07 16:03 -37.46034 -59.82223 37636 ft 485 kts 221°
2026-05-07 16:03 -37.51633 -59.86995 37654 ft 483 kts 220°
2026-05-07 16:04 -37.57167 -59.91720 37648 ft 485 kts 221°
2026-05-07 16:04 -37.62794 -59.96532 37624 ft 484 kts 220°
2026-05-07 16:05 -37.68306 -60.01256 37639 ft 482 kts 220°
2026-05-07 16:05 -37.73888 -60.06047 37643 ft 482 kts 220°
2026-05-07 16:06 -37.79398 -60.10785 37638 ft 478 kts 220°
2026-05-07 16:06 -37.84913 -60.15537 37632 ft 478 kts 220°
2026-05-07 16:07 -37.90401 -60.20275 37631 ft 480 kts 220°
2026-05-07 16:07 -37.95928 -60.25055 37635 ft 482 kts 220°
2026-05-07 16:08 -38.01423 -60.29816 37628 ft 480 kts 220°
2026-05-07 16:08 -38.06953 -60.34616 37639 ft 480 kts 219°
2026-05-07 16:09 -38.12437 -60.39384 37639 ft 479 kts 219°
2026-05-07 16:09 -38.17939 -60.44120 37639 ft 477 kts 219°
2026-05-07 16:10 -38.23457 -60.48793 37629 ft 478 kts 219°
2026-05-07 16:10 -38.29013 -60.53509 37634 ft 477 kts 218°
2026-05-07 16:11 -38.34558 -60.58226 37634 ft 477 kts 218°
2026-05-07 16:11 -38.40044 -60.62901 37638 ft 477 kts 218°
2026-05-07 16:12 -38.45578 -60.67627 37644 ft 477 kts 219°
2026-05-07 16:12 -38.51077 -60.72330 37644 ft 477 kts 219°
2026-05-07 16:13 -38.56569 -60.77036 37636 ft 476 kts 219°
2026-05-07 16:13 -38.62055 -60.81746 37635 ft 475 kts 219°
2026-05-07 16:14 -38.67538 -60.86462 37642 ft 474 kts 218°
2026-05-07 16:14 -38.73028 -60.91194 37642 ft 475 kts 218°
2026-05-07 16:15 -38.78495 -60.95915 37637 ft 474 kts 218°
2026-05-07 16:15 -38.83975 -61.00655 37635 ft 476 kts 218°
2026-05-07 16:16 -38.89448 -61.05398 37636 ft 475 kts 218°
2026-05-07 16:16 -38.94870 -61.10106 37641 ft 473 kts 218°
2026-05-07 16:17 -39.00288 -61.14820 37641 ft 472 kts 218°
2026-05-07 16:17 -39.05751 -61.19582 37643 ft 473 kts 218°
2026-05-07 16:18 -39.11171 -61.24314 37631 ft 472 kts 218°
2026-05-07 16:18 -39.16594 -61.29059 37610 ft 471 kts 218°
2026-05-07 16:19 -39.22044 -61.33837 37638 ft 471 kts 218°
2026-05-07 16:19 -39.27434 -61.38570 37644 ft 472 kts 218°
2026-05-07 16:20 -39.32877 -61.43360 37647 ft 471 kts 218°
2026-05-07 16:20 -39.38267 -61.48111 37647 ft 471 kts 218°
2026-05-07 16:21 -39.43653 -61.52869 37644 ft 471 kts 217°
2026-05-07 16:21 -39.49066 -61.57659 37628 ft 471 kts 217°
2026-05-07 16:22 -39.54445 -61.62427 37615 ft 470 kts 218°
2026-05-07 16:22 -39.59832 -61.67213 37626 ft 469 kts 218°
2026-05-07 16:23 -39.65214 -61.72005 37636 ft 469 kts 218°
2026-05-07 16:23 -39.70605 -61.76812 37636 ft 469 kts 218°
2026-05-07 16:24 -39.75952 -61.81589 37639 ft 468 kts 218°
2026-05-07 16:24 -39.81326 -61.86401 37643 ft 468 kts 218°
2026-05-07 16:25 -39.86656 -61.91196 37654 ft 468 kts 220°
2026-05-07 16:25 -39.91725 -61.96538 37662 ft 466 kts 223°
2026-05-07 16:26 -39.96716 -62.01886 37664 ft 465 kts 223°
2026-05-07 16:26 -40.01723 -62.07256 37653 ft 466 kts 222°
2026-05-07 16:27 -40.06704 -62.12610 37662 ft 465 kts 222°
2026-05-07 16:27 -40.11709 -62.17999 37657 ft 464 kts 222°
2026-05-07 16:28 -40.16687 -62.23370 37660 ft 463 kts 222°
2026-05-07 16:28 -40.21672 -62.28759 37658 ft 464 kts 222°
2026-05-07 16:29 -40.26620 -62.34119 37658 ft 462 kts 222°
2026-05-07 16:29 -40.31586 -62.39508 37659 ft 461 kts 222°
2026-05-07 16:30 -40.36533 -62.44888 37668 ft 461 kts 222°
2026-05-07 16:30 -40.41441 -62.50236 37664 ft 461 kts 222°
2026-05-07 16:31 -40.46362 -62.55609 37662 ft 461 kts 222°
2026-05-07 16:31 -40.51294 -62.61005 37662 ft 460 kts 221°
2026-05-07 16:32 -40.56173 -62.66352 37673 ft 458 kts 222°
2026-05-07 16:32 -40.61052 -62.71711 37675 ft 457 kts 222°
2026-05-07 16:33 -40.65979 -62.77132 37687 ft 459 kts 222°
2026-05-07 16:33 -40.70871 -62.82527 37699 ft 459 kts 222°
2026-05-07 16:34 -40.75734 -62.87898 37697 ft 458 kts 222°
2026-05-07 16:34 -40.80614 -62.93301 37702 ft 457 kts 221°
2026-05-07 16:35 -40.85485 -62.98704 37692 ft 457 kts 221°
2026-05-07 16:35 -40.90592 -63.03684 37700 ft 458 kts 216°
2026-05-07 16:36 -40.95798 -63.08437 37701 ft 457 kts 216°
2026-05-07 16:36 -41.01033 -63.13266 37693 ft 457 kts 216°
2026-05-07 16:37 -41.06247 -63.18088 37692 ft 456 kts 216°
2026-05-07 16:37 -41.11431 -63.22892 37694 ft 455 kts 216°
2026-05-07 16:38 -41.16649 -63.27737 37693 ft 455 kts 216°
2026-05-07 16:38 -41.21835 -63.32561 37703 ft 453 kts 216°
2026-05-07 16:39 -41.26991 -63.37367 37715 ft 453 kts 216°
2026-05-07 16:39 -41.32149 -63.42185 37714 ft 452 kts 216°
2026-05-07 16:40 -41.37309 -63.47014 37710 ft 451 kts 216°
2026-05-07 16:40 -41.42430 -63.51817 37716 ft 451 kts 216°
2026-05-07 16:41 -41.47548 -63.56625 37711 ft 450 kts 216°
2026-05-07 16:41 -41.52627 -63.61407 37713 ft 448 kts 216°
2026-05-07 16:42 -41.57719 -63.66209 37704 ft 447 kts 217°
2026-05-07 16:42 -41.62803 -63.71014 37711 ft 448 kts 216°
2026-05-07 16:43 -41.67894 -63.75835 37709 ft 447 kts 216°
2026-05-07 16:43 -41.72968 -63.80650 37717 ft 447 kts 216°
2026-05-07 16:44 -41.78056 -63.85487 37719 ft 446 kts 216°
2026-05-07 16:44 -41.83112 -63.90303 37723 ft 446 kts 216°
2026-05-07 16:45 -41.88153 -63.95114 37723 ft 445 kts 216°
2026-05-07 16:45 -41.93219 -63.99960 37719 ft 444 kts 216°
2026-05-07 16:46 -41.98246 -64.04777 37732 ft 444 kts 216°
2026-05-07 16:46 -42.03302 -64.09631 37728 ft 444 kts 216°
2026-05-07 16:47 -42.08338 -64.14477 37724 ft 443 kts 216°
2026-05-07 16:47 -42.13269 -64.19231 37727 ft 442 kts 216°
2026-05-07 16:48 -42.18286 -64.24076 37737 ft 441 kts 216°
2026-05-07 16:48 -42.23294 -64.28922 37726 ft 441 kts 216°
2026-05-07 16:49 -42.28284 -64.33762 37731 ft 439 kts 216°
2026-05-07 16:49 -42.33242 -64.38580 37727 ft 440 kts 216°
2026-05-07 16:50 -42.38197 -64.43404 37739 ft 438 kts 216°
2026-05-07 16:50 -42.43131 -64.48217 37742 ft 437 kts 216°
2026-05-07 16:51 -42.48071 -64.53046 37734 ft 439 kts 216°
2026-05-07 16:51 -42.53030 -64.57903 37736 ft 438 kts 215°
2026-05-07 16:52 -42.57966 -64.62747 37735 ft 436 kts 216°
2026-05-07 16:52 -42.62824 -64.67525 37754 ft 435 kts 216°
2026-05-07 16:53 -42.67739 -64.72367 37758 ft 436 kts 216°
2026-05-07 16:53 -42.72627 -64.77193 37757 ft 435 kts 216°
2026-05-07 16:54 -42.77538 -64.82051 37773 ft 435 kts 216°
2026-05-07 16:54 -42.82405 -64.86875 37769 ft 434 kts 216°
2026-05-07 16:55 -42.87271 -64.91708 37773 ft 434 kts 216°
2026-05-07 16:55 -42.92159 -64.96572 37774 ft 433 kts 216°
2026-05-07 16:56 -42.97002 -65.01401 37778 ft 433 kts 216°
2026-05-07 16:56 -43.04334 -65.08731 37777 ft 434 kts 216°
2026-05-07 16:57 -43.09178 -65.13586 37792 ft 430 kts 216°
2026-05-07 16:57 -43.14005 -65.18433 37797 ft 432 kts 216°
2026-05-07 16:58 -43.18825 -65.23283 37778 ft 429 kts 216°
2026-05-07 16:58 -43.23917 -65.27615 37796 ft 430 kts 209°
2026-05-07 16:59 -43.29052 -65.31641 37801 ft 427 kts 209°
2026-05-07 16:59 -43.34209 -65.35705 37790 ft 426 kts 209°
2026-05-07 17:00 -43.39334 -65.39753 37805 ft 425 kts 209°
2026-05-07 17:00 -43.44478 -65.43824 37778 ft 426 kts 209°
2026-05-07 17:01 -43.49578 -65.47868 37792 ft 424 kts 210°
2026-05-07 17:01 -43.54700 -65.51938 37798 ft 424 kts 210°
2026-05-07 17:02 -43.59782 -65.55984 37769 ft 426 kts 210°
2026-05-07 17:02 -43.64888 -65.60057 37776 ft 424 kts 210°
2026-05-07 17:03 -43.69973 -65.64120 37784 ft 422 kts 210°
2026-05-07 17:03 -43.75059 -65.68195 37786 ft 421 kts 210°
2026-05-07 17:04 -43.80133 -65.72266 37773 ft 423 kts 210°
2026-05-07 17:04 -43.85228 -65.76362 37781 ft 423 kts 210°
2026-05-07 17:05 -43.90291 -65.80441 37776 ft 421 kts 210°
2026-05-07 17:05 -43.95361 -65.84534 37782 ft 421 kts 210°
2026-05-07 17:06 -44.00400 -65.88611 37790 ft 422 kts 210°
2026-05-07 17:06 -44.05495 -65.92741 37795 ft 421 kts 210°
2026-05-07 17:07 -44.10539 -65.96839 37810 ft 419 kts 210°
2026-05-07 17:07 -44.15551 -66.00919 37819 ft 421 kts 210°
2026-05-07 17:08 -44.20603 -66.05040 37821 ft 421 kts 210°
2026-05-07 17:08 -44.25611 -66.09133 37822 ft 419 kts 210°
2026-05-07 17:09 -44.30645 -66.13255 37825 ft 419 kts 210°
2026-05-07 17:09 -44.35671 -66.17380 37826 ft 418 kts 210°
2026-05-07 17:10 -44.40680 -66.21498 37825 ft 419 kts 210°
2026-05-07 17:10 -44.45655 -66.25597 37833 ft 416 kts 211°
2026-05-07 17:11 -44.50680 -66.29746 37821 ft 416 kts 211°
2026-05-07 17:11 -44.55659 -66.33864 37821 ft 418 kts 211°
2026-05-07 17:12 -44.60661 -66.38010 37833 ft 418 kts 211°
2026-05-07 17:12 -44.65620 -66.42129 37847 ft 416 kts 211°
2026-05-07 17:13 -44.70620 -66.46291 37849 ft 416 kts 211°
2026-05-07 17:13 -44.75600 -66.50444 37837 ft 417 kts 211°
2026-05-07 17:14 -44.80581 -66.54605 37841 ft 415 kts 211°
2026-05-07 17:14 -44.85514 -66.58736 37864 ft 415 kts 211°
2026-05-07 17:15 -44.90495 -66.62914 37862 ft 415 kts 211°
2026-05-07 17:15 -44.95454 -66.67084 37866 ft 416 kts 211°
2026-05-07 17:16 -45.00405 -66.71254 37883 ft 416 kts 212°
2026-05-07 17:16 -45.05362 -66.75436 37881 ft 415 kts 211°
2026-05-07 17:17 -45.10335 -66.79642 37888 ft 415 kts 212°
2026-05-07 17:17 -45.15271 -66.83825 37899 ft 414 kts 211°
2026-05-07 17:18 -45.20171 -66.87985 37905 ft 415 kts 212°
2026-05-07 17:18 -45.25098 -66.92177 37918 ft 414 kts 212°
2026-05-07 17:19 -45.30072 -66.96418 37925 ft 413 kts 212°
2026-05-07 17:19 -45.35004 -67.00630 37932 ft 414 kts 212°
2026-05-07 17:20 -45.39977 -67.04888 37934 ft 413 kts 212°
2026-05-07 17:20 -45.44891 -67.09103 37935 ft 414 kts 212°
2026-05-07 17:21 -45.49871 -67.13384 37933 ft 416 kts 212°
2026-05-07 17:21 -45.54816 -67.17643 37952 ft 414 kts 212°
2026-05-07 17:22 -45.59794 -67.21941 37957 ft 416 kts 212°
2026-05-07 17:22 -45.64738 -67.26217 37961 ft 413 kts 212°
2026-05-07 17:23 -45.69642 -67.30468 37969 ft 415 kts 212°
2026-05-07 17:23 -45.74630 -67.34800 37973 ft 414 kts 212°
2026-05-07 17:24 -45.79505 -67.39178 37968 ft 414 kts 214°
2026-05-07 17:24 -45.84337 -67.43728 37968 ft 415 kts 213°
2026-05-07 17:25 -45.89197 -67.48305 37978 ft 416 kts 214°
2026-05-07 17:25 -45.93252 -67.52131 37976 ft 418 kts 214°
2026-05-07 17:26 -45.98924 -67.57491 37982 ft 417 kts 214°
2026-05-07 17:26 -46.03802 -67.62114 37968 ft 417 kts 214°
2026-05-07 17:27 -46.08659 -67.66726 37974 ft 417 kts 215°
2026-05-07 17:27 -46.13538 -67.71369 37973 ft 418 kts 215°
2026-05-07 17:28 -46.18379 -67.75987 37978 ft 417 kts 214°
2026-05-07 17:28 -46.23243 -67.80634 37986 ft 416 kts 215°
2026-05-07 17:29 -46.28091 -67.85278 37985 ft 417 kts 214°
2026-05-07 17:29 -46.32959 -67.89951 37980 ft 417 kts 215°
2026-05-07 17:30 -46.37816 -67.94623 37979 ft 417 kts 214°
2026-05-07 17:30 -46.42686 -67.99318 37983 ft 417 kts 215°
2026-05-07 17:31 -46.47578 -68.04044 37977 ft 418 kts 214°
2026-05-07 17:31 -46.52425 -68.08737 37977 ft 418 kts 214°
2026-05-07 17:32 -46.57245 -68.13414 37980 ft 417 kts 215°
2026-05-07 17:32 -46.62225 -68.18258 37983 ft 418 kts 215°
2026-05-07 17:33 -46.67104 -68.23014 37986 ft 416 kts 215°
2026-05-07 17:33 -46.71908 -68.27706 38015 ft 416 kts 215°
2026-05-07 17:34 -46.76723 -68.32419 37995 ft 417 kts 215°
2026-05-07 17:34 -46.81562 -68.37167 37996 ft 416 kts 215°
2026-05-07 17:35 -46.86374 -68.41898 37996 ft 416 kts 215°
2026-05-07 17:35 -46.91229 -68.46683 37997 ft 418 kts 215°
2026-05-07 17:36 -46.96044 -68.51439 37998 ft 417 kts 215°
2026-05-07 17:36 -47.00860 -68.56205 37994 ft 416 kts 215°
2026-05-07 17:37 -47.05660 -68.60966 37990 ft 417 kts 215°
2026-05-07 17:37 -47.10478 -68.65758 37989 ft 415 kts 216°
2026-05-07 17:38 -47.15270 -68.70532 38000 ft 416 kts 216°
2026-05-07 17:38 -47.20063 -68.75319 37994 ft 417 kts 216°
2026-05-07 17:39 -47.24865 -68.80125 37991 ft 416 kts 216°
2026-05-07 17:39 -47.29702 -68.84977 37967 ft 417 kts 216°
2026-05-07 17:40 -47.34501 -68.89802 37960 ft 415 kts 216°
2026-05-07 17:40 -47.39305 -68.94641 37948 ft 415 kts 216°
2026-05-07 17:41 -47.44080 -68.99464 37945 ft 413 kts 216°
2026-05-07 17:41 -47.48840 -69.04282 37947 ft 414 kts 216°
2026-05-07 17:42 -47.53592 -69.09102 37951 ft 412 kts 216°
2026-05-07 17:42 -47.58371 -69.13961 37952 ft 412 kts 216°
2026-05-07 17:43 -47.63176 -69.18858 37960 ft 414 kts 216°
2026-05-07 17:43 -47.67709 -69.23487 37965 ft 413 kts 216°
2026-05-07 17:44 -47.72467 -69.28357 37967 ft 413 kts 216°
2026-05-07 17:44 -47.77195 -69.33206 37969 ft 414 kts 216°
2026-05-07 17:45 -47.81904 -69.38048 37976 ft 413 kts 216°
2026-05-07 17:45 -47.86635 -69.42923 37975 ft 412 kts 216°
2026-05-07 17:46 -47.91373 -69.47817 37975 ft 412 kts 216°
2026-05-07 17:46 -47.96099 -69.52708 37981 ft 410 kts 216°
2026-05-07 17:47 -48.00819 -69.57605 37979 ft 411 kts 216°
2026-05-07 17:47 -48.05541 -69.62515 37972 ft 411 kts 216°
2026-05-07 17:48 -48.07890 -69.64962 37970 ft 411 kts 216°